[[{"header":{"parameterUnit":"m.s-1","parameterCategory":2,"la1":30.2991,"la2":30.254,"lo1":-89.0895,"lo2":-89.0444,"dy":0.0017,"dx":0.0017,"nx":28,"ny":28,"refTime":"2025-07-18T21:00:00:Z","depth":"0","parameterNumber":2,"parameterNumberName":"U-component_of_CURRENTS"},"data":[0,0,0,0,0,0,0,0,0,0,0,0,0,0,0,0,0,0,0,0,0,0,0,0,0,0,0,0,0,0,0,0,0,0,0,0,0,0,0,0,0,0,0,0,0,0,0,0,0,0,0,0,0,0,0,0,0,0,0.1971,0.1972,0,0.1987,0.1987,0.1987,0.1962,0.1962,0.1961,0.1961,0.1951,0.1951,0.1952,0,0,0,0,0,0,0,0,0,0,0,0,0,0.192,0.1921,0.1971,0.1972,0.1972,0.1987,0.1987,0.1987,0.1963,0.1962,0.1961,0.196,0.1951,0.1951,0.1952,0,0,0,0,0,0,0,0,0,0,0,0,0,0.1937,0.1921,0.1971,0.1964,0.1964,0.1987,0.1987,0.1987,0.1963,0.1962,0.1961,0.196,0.1951,0.1951,0.1952,0.1971,0,0,0.1953,0.1953,0,0,0,0,0,0,0,0,0.1936,0.1938,0.1965,0.1965,0.1964,0.1975,0.1966,0.1982,0.1963,0.196,0.1961,0.196,0.1959,0.1959,0.196,0.1971,0.197,0.1953,0.1953,0.1953,0.1953,0,0,0,0,0,0,0,0.1935,0.1937,0.1974,0.1965,0.1965,0.1961,0.1962,0.1968,0.1961,0.196,0.1959,0.1966,0.1958,0.1959,0.1959,0.197,0.1953,0.1953,0.1953,0.1954,0.2016,0.2017,0,0,0,0,0,0,0.194,0.1937,0.1974,0.1975,0.1951,0.1962,0.1963,0.197,0.1962,0.1961,0.1967,0.1965,0.1959,0.1959,0.1959,0.2003,0.1953,0.1954,0.1954,0.2014,0.2016,0.2017,0,0,0,0,0,0,0.1939,0.1943,0.1973,0.1959,0.1962,0.1965,0.1972,0.1971,0.1973,0.1968,0.1965,0.197,0.1958,0.1958,0.1973,0.2002,0.1954,0.1954,0.2012,0.2015,0.2017,0.2078,0,0,0,0,0,0,0.1937,0.1943,0.1948,0.1959,0.1964,0.1991,0.1973,0.1972,0.198,0.1977,0.197,0.1968,0.1958,0.1972,0.1973,0.2001,0.1955,0.2011,0.2013,0.2016,0.2074,0.2082,0.2089,0,0,0,0,0,0.1936,0.1953,0.1948,0.1953,0.1971,0.1992,0.1993,0.199,0.1981,0.1987,0.1985,0.1969,0.199,0.1974,0.1974,0.2004,0.2009,0.2013,0.2016,0.2071,0.2081,0.2089,0,0,0,0,0,0,0.194,0.1953,0.1947,0.1969,0.1979,0.1989,0.1998,0.1996,0.1999,0.1997,0.1985,0.1984,0.201,0.1999,0.1982,0.203,0.1998,0.2001,0.204,0.2049,0.2056,0.2075,0.1955,0,0,0,0,0,0.1943,0.1954,0.1966,0.1983,0.1989,0.1993,0.2,0.2,0.2008,0.2007,0.2006,0.2009,0.2025,0.2029,0.2036,0.2061,0.2064,0.2081,0.2088,0.2094,0.2111,0.2158,0.2172,0.2028,0.2028,0.2028,0,0,0.1952,0.1959,0.1967,0.1984,0.1989,0.2006,0.1994,0.2012,0.203,0.2008,0.203,0.2036,0.2038,0.2067,0.2078,0.206,0.2132,0.2098,0.2103,0.2117,0.2163,0.2177,0.219,0.203,0.2029,0.2029,0,0,0.1975,0.198,0.1993,0.2001,0.2015,0.2022,0.2029,0.2043,0.2051,0.2074,0.2071,0.2099,0.2105,0.2127,0.2135,0.2188,0.2171,0.2183,0.2233,0.2279,0.2292,0.2303,0.2304,0.2315,0.2184,0.2184,0.2184,0,0.1987,0.2002,0.2002,0.2015,0.2029,0.203,0.2052,0.2065,0.2084,0.2107,0.2086,0.2142,0.214,0.22,0.2217,0.2208,0.2212,0.2198,0.229,0.2301,0.2311,0.231,0.2321,0.2188,0.2187,0.2187,0.2187,0,0.2013,0.2026,0.2038,0.2052,0.2066,0.2089,0.2106,0.2128,0.2137,0.2156,0.2214,0.2223,0.2259,0.2265,0.2255,0.2333,0.2304,0.2296,0.2269,0.233,0.2324,0.2334,0.2193,0.2191,0.219,0.2189,0,0,0.2051,0.2055,0.2061,0.2067,0.2089,0.2104,0.2144,0.2188,0.2226,0.225,0.2308,0.2347,0.2361,0.2373,0.2375,0.2414,0.248,0.2387,0.2387,0.2388,0.2553,0.2444,0.2444,0.2487,0.249,0.2492,0.251,0,0.2076,0.2094,0.2099,0.213,0.2144,0.2161,0.2199,0.2239,0.2273,0.2328,0.2367,0.2416,0.2399,0.2422,0.2465,0.2478,0.2514,0.2474,0.2493,0.2493,0.2391,0.2456,0.2373,0.2375,0.2521,0.2522,0.2523,0,0.2105,0.2111,0.2135,0.2163,0.2174,0.2195,0.2259,0.2295,0.2373,0.2403,0.2469,0.2493,0.2563,0.2534,0.2605,0.2577,0.2578,0.2581,0.2582,0.2471,0.2405,0.2343,0.2388,0.2358,0.2539,0.2538,0.2537,0,0.2119,0.2145,0.216,0.2168,0.2199,0.2224,0.2252,0.2322,0.2361,0.2458,0.2495,0.2579,0.2607,0.2653,0.2648,0.2638,0.2704,0.2688,0.2592,0.2582,0.2512,0.2491,0.2535,0.2753,0.2753,0.2753,0.2753,0,0.2144,0.2162,0.2164,0.2171,0.2206,0.223,0.2286,0.2334,0.2407,0.2455,0.2533,0.2579,0.2641,0.2674,0.2681,0.2656,0.2731,0.2617,0.2596,0.2525,0.2506,0.2473,0.2456,0.2754,0.2754,0.2754,0.2753,0,0.2153,0.2157,0.2174,0.2196,0.2207,0.223,0.228,0.2321,0.2395,0.2461,0.2491,0.2584,0.2615,0.2648,0.2699,0.2668,0.2584,0.2647,0.253,0.2494,0.2352,0.2339,0.2135,0.2097,0.2551,0.2549,0.2547,0,0.2151,0.2156,0.2173,0.2176,0.2183,0.2216,0.224,0.231,0.2345,0.245,0.2474,0.2536,0.2548,0.2569,0.2547,0.2532,0.2481,0.2441,0.2414,0.2345,0.2319,0.2133,0.2106,0.234,0.2337,0.2334,0.2332,0,0.2143,0.2148,0.2152,0.2152,0.2166,0.2184,0.2216,0.2242,0.2319,0.2354,0.2396,0.2417,0.2437,0.2382,0.2356,0.2346,0.23,0.2377,0.237,0.2211,0.1952,0.1904,0.2298,0.2306,0.2309,0.231,0.2312,0.2313,0.2121,0.2119,0.2112,0.2112,0.2124,0.2123,0.2104,0.2135,0.2151,0.2161,0.2254,0.2226,0.2266,0.2208,0.2182,0.2109,0.2069,0.2074,0.2079,0.1906,0.1821,0.2123,0.2061,0.2062,0.2063,0.2064,0.2065,0,0.2069,0.2067,0.2067,0.2048,0.2021,0.2051,0.2055,0.2009,0.1967,0.2006,0.1996,0.1997,0.195,0.1976,0.1943,0.1866,0.1748,0.1825,0.1623,0.1633,0.1986,0.1936,0.1767,0.1767,0.1767,0.1767,0.1767,0.1767,0.2037,0.2009,0.2005,0.1933,0.1916,0.184,0.1812,0.1764,0.1755,0.169,0.1664,0.1695,0.1784,0.1765,0.1716,0.1696,0.1583,0.1403,0.1445,0.1798,0.1824,0.1848,0.18,0.1606,0.1606,0.1004,0.1,0.0997]},{"header":{"parameterUnit":"m.s-1","parameterCategory":2,"la1":30.2991,"la2":30.254,"lo1":-89.0895,"lo2":-89.0444,"dy":0.0017,"dx":0.0017,"nx":28,"ny":28,"refTime":"2025-07-18T21:00:00:Z","depth":"0","parameterNumber":3,"parameterNumberName":"V-component_of_CURRENTS"},"data":[0,0,0,0,0,0,0,0,0,0,0,0,0,0,0,0,0,0,0,0,0,0,0,0,0,0,0,0,0,0,0,0,0,0,0,0,0,0,0,0,0,0,0,0,0,0,0,0,0,0,0,0,0,0,0,0,0,0,0.046,0.0461,0,0.0477,0.0477,0.0477,0.0473,0.0473,0.0473,0.0472,0.0458,0.0458,0.0458,0,0,0,0,0,0,0,0,0,0,0,0,0,0.0401,0.0402,0.046,0.0461,0.0461,0.0477,0.0477,0.0477,0.0473,0.0473,0.0473,0.0472,0.0459,0.0458,0.0458,0,0,0,0,0,0,0,0,0,0,0,0,0,0.0421,0.0403,0.046,0.0462,0.0463,0.0477,0.0477,0.0477,0.0473,0.0473,0.0473,0.0472,0.0459,0.0458,0.0458,0.046,0,0,0.0457,0.0457,0,0,0,0,0,0,0,0,0.042,0.0423,0.0462,0.0462,0.0463,0.0474,0.0451,0.047,0.0473,0.0467,0.0472,0.0472,0.0462,0.0462,0.0463,0.0459,0.0459,0.0457,0.0457,0.0456,0.0456,0,0,0,0,0,0,0,0.0419,0.0423,0.0465,0.0462,0.0463,0.0454,0.0457,0.0454,0.0464,0.0468,0.0468,0.0473,0.0462,0.0463,0.0463,0.0459,0.0457,0.0456,0.0456,0.0456,0.046,0.046,0,0,0,0,0,0,0.0422,0.0422,0.0465,0.0466,0.0443,0.0456,0.0458,0.0469,0.0465,0.0464,0.0473,0.0472,0.0464,0.0463,0.0462,0.0483,0.0456,0.0456,0.0456,0.046,0.046,0.0461,0,0,0,0,0,0,0.0421,0.0426,0.0464,0.0445,0.0449,0.0457,0.0469,0.047,0.0473,0.0469,0.0468,0.0476,0.0464,0.0462,0.0466,0.0482,0.0456,0.0456,0.0459,0.046,0.046,0.0513,0,0,0,0,0,0,0.0419,0.0426,0.0433,0.0445,0.0451,0.0477,0.047,0.047,0.0477,0.0477,0.0471,0.047,0.0464,0.0466,0.0465,0.0481,0.0455,0.0459,0.046,0.046,0.0511,0.0516,0.0519,0,0,0,0,0,0.0417,0.0433,0.0434,0.0439,0.0461,0.0478,0.0479,0.0482,0.0477,0.0483,0.048,0.047,0.0469,0.0467,0.0465,0.0481,0.0459,0.0459,0.046,0.0509,0.0515,0.0519,0,0,0,0,0,0,0.0413,0.0435,0.0435,0.0458,0.0467,0.0478,0.0486,0.0485,0.0487,0.0485,0.0476,0.0475,0.0483,0.0472,0.0469,0.0482,0.0461,0.0462,0.0499,0.0504,0.0508,0.0547,0.0455,0,0,0,0,0,0.0415,0.0433,0.0448,0.0465,0.0471,0.0477,0.0483,0.0485,0.049,0.049,0.049,0.0485,0.0485,0.0486,0.0483,0.0492,0.0483,0.0499,0.0503,0.0507,0.0536,0.0533,0.054,0.0463,0.0463,0.0463,0,0,0.0418,0.0433,0.0443,0.0465,0.0473,0.0495,0.048,0.0493,0.0514,0.0488,0.0513,0.0499,0.0489,0.0502,0.0504,0.0495,0.0517,0.0507,0.0511,0.0539,0.0535,0.0542,0.0549,0.0463,0.0463,0.0463,0,0,0.0437,0.0447,0.0468,0.0481,0.0498,0.0505,0.051,0.0522,0.0529,0.0545,0.0533,0.0537,0.0532,0.054,0.0539,0.0563,0.0537,0.0548,0.0606,0.0602,0.0609,0.0615,0.0589,0.0592,0.0553,0.0553,0.0553,0,0.0438,0.0474,0.0475,0.0501,0.0524,0.0513,0.0546,0.0551,0.0563,0.0585,0.0559,0.0578,0.0559,0.0595,0.0599,0.0577,0.0559,0.0589,0.0609,0.0615,0.062,0.0593,0.0596,0.0555,0.0555,0.0555,0.0555,0,0.0475,0.0505,0.052,0.0555,0.0574,0.0599,0.0612,0.0629,0.0631,0.0644,0.0674,0.0651,0.0673,0.0653,0.0633,0.0666,0.0634,0.0613,0.0601,0.0632,0.0599,0.0602,0.0559,0.0558,0.0557,0.0557,0,0,0.0479,0.0537,0.0543,0.0581,0.0609,0.0636,0.067,0.0715,0.076,0.075,0.0809,0.0791,0.0785,0.0785,0.0756,0.0747,0.0747,0.0699,0.0698,0.0683,0.0722,0.0685,0.0683,0.0725,0.0726,0.0727,0.0675,0,0.0512,0.058,0.0599,0.067,0.071,0.0727,0.0772,0.0806,0.0827,0.0875,0.0859,0.0891,0.0832,0.0842,0.0828,0.0773,0.076,0.0763,0.0688,0.0687,0.0658,0.0688,0.0709,0.0665,0.0677,0.0678,0.0678,0,0.0543,0.0592,0.0665,0.0756,0.0776,0.0814,0.0902,0.0941,0.0994,0.1012,0.1038,0.1023,0.1024,0.096,0.0899,0.09,0.0828,0.0771,0.0767,0.0727,0.0656,0.064,0.0668,0.0666,0.0681,0.0681,0.0681,0,0.0557,0.0643,0.071,0.0737,0.0825,0.0871,0.0921,0.0986,0.1042,0.1103,0.1142,0.1138,0.1134,0.106,0.0939,0.0922,0.0854,0.0814,0.0715,0.0709,0.0714,0.0708,0.0747,0.0783,0.0783,0.0783,0.0783,0,0.059,0.0647,0.0726,0.0765,0.0863,0.0911,0.1016,0.1064,0.1145,0.1224,0.1216,0.1258,0.1158,0.1101,0.0985,0.0858,0.0889,0.0745,0.0708,0.0728,0.0724,0.071,0.0694,0.0781,0.0781,0.0782,0.0782,0,0.0595,0.0644,0.0728,0.0831,0.087,0.0939,0.1067,0.1144,0.1211,0.131,0.1332,0.1345,0.1274,0.1154,0.1026,0.0916,0.0786,0.0742,0.0761,0.0728,0.0634,0.0619,0.0607,0.0609,0.0638,0.0637,0.0636,0,0.0607,0.0649,0.0763,0.082,0.0869,0.0979,0.106,0.1161,0.1245,0.1359,0.1407,0.1384,0.137,0.1171,0.0984,0.0793,0.0759,0.0686,0.0668,0.0656,0.0612,0.0605,0.0607,0.0678,0.0678,0.0677,0.0677,0,0.0631,0.0661,0.073,0.084,0.0931,0.1041,0.1163,0.1241,0.1365,0.1444,0.1521,0.152,0.1356,0.1198,0.0952,0.0808,0.0706,0.0671,0.0672,0.0671,0.0657,0.0631,0.0665,0.0674,0.0674,0.0675,0.0675,0.0675,0.064,0.0684,0.0764,0.0871,0.0972,0.1092,0.1184,0.131,0.1438,0.1571,0.1574,0.1598,0.1424,0.1097,0.0911,0.0666,0.0663,0.0608,0.0593,0.0589,0.06,0.0618,0.0576,0.0576,0.0575,0.0575,0.0575,0,0.0648,0.0705,0.0799,0.0924,0.1023,0.1081,0.1245,0.1343,0.1481,0.1604,0.1661,0.1638,0.1387,0.1148,0.0824,0.0656,0.0594,0.0574,0.06,0.0607,0.0639,0.0653,0.0613,0.0613,0.0613,0.0613,0.0613,0.0613,0.0656,0.0728,0.0777,0.0933,0.1026,0.1158,0.1245,0.1395,0.1518,0.1687,0.1763,0.1815,0.173,0.1135,0.0795,0.0679,0.0625,0.0557,0.0541,0.0592,0.0596,0.0599,0.0612,0.0564,0.0564,0.0549,0.0548,0.0548]}],[{"header":{"parameterUnit":"m.s-1","parameterCategory":2,"la1":30.2991,"la2":30.254,"lo1":-89.0895,"lo2":-89.0444,"dy":0.0017,"dx":0.0017,"nx":28,"ny":28,"refTime":"2025-07-18T21:00:00:Z","depth":"2","parameterNumber":2,"parameterNumberName":"U-component_of_CURRENTS"},"data":[0,0,0,0,0,0,0,0,0,0,0,0,0,0,0,0,0,0,0,0,0,0,0,0,0,0,0,0,0,0,0,0,0,0,0,0,0,0,0,0,0,0,0,0,0,0,0,0,0,0,0,0,0,0,0,0,0,0,0.1845,0.1845,0,0.1857,0.1857,0.1857,0.1847,0.1846,0.1846,0.1846,0.1851,0.1852,0.1852,0,0,0,0,0,0,0,0,0,0,0,0,0,0.1803,0.1803,0.1845,0.1845,0.1846,0.1857,0.1857,0.1857,0.1847,0.1846,0.1846,0.1846,0.1851,0.1852,0.1852,0,0,0,0,0,0,0,0,0,0,0,0,0,0.1816,0.1804,0.1845,0.1844,0.1845,0.1857,0.1857,0.1857,0.1847,0.1846,0.1846,0.1846,0.1851,0.1852,0.1852,0.1859,0,0,0.1853,0.1853,0,0,0,0,0,0,0,0,0.1815,0.1817,0.1844,0.1844,0.1845,0.1853,0.1844,0.1858,0.1847,0.1843,0.1846,0.1846,0.1853,0.1854,0.1852,0.1859,0.1859,0.1853,0.1853,0.1854,0.1854,0,0,0,0,0,0,0,0.1814,0.1816,0.1847,0.1844,0.1845,0.184,0.1842,0.1846,0.1847,0.1843,0.1843,0.1849,0.1853,0.1852,0.1852,0.1859,0.1853,0.1854,0.1854,0.1854,0.1911,0.1913,0,0,0,0,0,0,0.182,0.1816,0.1846,0.1847,0.1833,0.1841,0.1843,0.1848,0.1847,0.1847,0.185,0.1849,0.1851,0.1852,0.1852,0.19,0.1854,0.1854,0.1854,0.191,0.1912,0.1913,0,0,0,0,0,0,0.1819,0.1822,0.1846,0.1834,0.1837,0.1843,0.1848,0.1848,0.1854,0.1852,0.1852,0.1857,0.1851,0.1852,0.187,0.1899,0.1854,0.1855,0.1909,0.1911,0.1912,0.197,0,0,0,0,0,0,0.1817,0.1822,0.1828,0.1835,0.1838,0.1861,0.1849,0.1849,0.186,0.1859,0.1859,0.1858,0.1851,0.1869,0.187,0.1898,0.1855,0.1907,0.1909,0.1912,0.1967,0.1974,0.198,0,0,0,0,0,0.1816,0.1831,0.1828,0.1832,0.1846,0.1862,0.1863,0.1864,0.186,0.1867,0.1871,0.1859,0.1885,0.1871,0.1871,0.19,0.1906,0.1909,0.1911,0.1964,0.1972,0.198,0,0,0,0,0,0,0.1822,0.1832,0.1829,0.1847,0.1856,0.1862,0.187,0.1871,0.1878,0.188,0.1872,0.1873,0.1901,0.1892,0.1876,0.1924,0.1895,0.1898,0.1934,0.1942,0.1949,0.1966,0.1855,0,0,0,0,0,0.1825,0.1835,0.1844,0.186,0.1863,0.1867,0.1874,0.1877,0.1885,0.1888,0.1892,0.1899,0.1913,0.192,0.1927,0.1952,0.1954,0.1972,0.1978,0.1984,0.1999,0.2039,0.2051,0.1922,0.1922,0.1922,0,0,0.1835,0.184,0.1848,0.1861,0.1865,0.1878,0.187,0.1888,0.1906,0.1889,0.1916,0.1922,0.1924,0.1954,0.1966,0.1951,0.2018,0.1988,0.1993,0.2004,0.2043,0.2056,0.2067,0.1924,0.1924,0.1924,0,0,0.1855,0.186,0.1871,0.1878,0.189,0.1896,0.1904,0.1917,0.1928,0.1953,0.1952,0.198,0.199,0.2009,0.2016,0.2064,0.2052,0.2064,0.2113,0.2151,0.2163,0.2172,0.2176,0.2185,0.2068,0.2068,0.2068,0,0.1867,0.1879,0.1879,0.1889,0.1901,0.1905,0.1923,0.1937,0.1958,0.1983,0.1969,0.2022,0.202,0.2073,0.209,0.2082,0.2089,0.2081,0.2161,0.2171,0.218,0.2181,0.2191,0.2071,0.2071,0.207,0.207,0,0.1887,0.19,0.1909,0.192,0.1934,0.1954,0.197,0.1995,0.2009,0.203,0.2087,0.2094,0.2132,0.2135,0.2126,0.2197,0.2175,0.2164,0.2141,0.2197,0.2194,0.2203,0.2075,0.2074,0.2073,0.2073,0,0,0.1916,0.1921,0.1926,0.1933,0.1954,0.1968,0.2007,0.205,0.2087,0.2116,0.2175,0.2206,0.2226,0.2236,0.2239,0.227,0.233,0.2249,0.225,0.2253,0.2397,0.229,0.2289,0.2338,0.234,0.2342,0.2363,0,0.1935,0.1951,0.1956,0.1986,0.1998,0.2018,0.2054,0.2096,0.2131,0.2189,0.2227,0.2276,0.226,0.2286,0.2322,0.2328,0.2361,0.2324,0.2343,0.2343,0.2242,0.2299,0.2114,0.211,0.2372,0.2374,0.2375,0,0.1957,0.1964,0.1986,0.2017,0.2026,0.2048,0.2112,0.2148,0.2228,0.2261,0.2328,0.2354,0.2419,0.2392,0.2448,0.2426,0.2428,0.2424,0.2424,0.2314,0.2254,0.2101,0.2117,0.239,0.2389,0.2388,0.2387,0,0.1969,0.1993,0.2009,0.2017,0.205,0.2077,0.2109,0.2177,0.2218,0.2319,0.2356,0.2437,0.2466,0.2504,0.2493,0.2485,0.2533,0.2519,0.2424,0.2415,0.2256,0.2229,0.2575,0.2575,0.2575,0.2575,0.2575,0,0.1986,0.2006,0.2015,0.2023,0.2062,0.2089,0.2144,0.2196,0.2272,0.2321,0.2398,0.2436,0.2497,0.2522,0.2526,0.249,0.2563,0.2446,0.2425,0.2267,0.2241,0.2483,0.2472,0.2576,0.2576,0.2575,0.2575,0,0.1989,0.2001,0.2021,0.2049,0.2064,0.2093,0.2148,0.2186,0.2263,0.2331,0.2366,0.2446,0.2468,0.2497,0.2535,0.2501,0.2498,0.247,0.2258,0.2212,0.2347,0.2339,0.2381,0.2378,0.2375,0.2373,0.2371,0,0.1981,0.199,0.202,0.2033,0.2045,0.2085,0.2111,0.2184,0.2213,0.2316,0.2339,0.2395,0.2393,0.2397,0.2362,0.2342,0.2423,0.2159,0.2117,0.2358,0.2334,0.233,0.2326,0.1925,0.1919,0.1915,0.1911,0,0.1963,0.1979,0.1987,0.2008,0.2034,0.2051,0.2088,0.2105,0.2183,0.2213,0.2242,0.2253,0.2254,0.2134,0.2105,0.2077,0.2148,0.2065,0.2395,0.1994,0.1927,0.1903,0.1915,0.1871,0.1875,0.1878,0.188,0.1882,0.1937,0.1938,0.1948,0.1964,0.1995,0.1994,0.197,0.1993,0.2,0.1999,0.208,0.2013,0.2015,0.1857,0.1788,0.1741,0.1896,0.1823,0.1837,0.1857,0.1792,0.1723,0.1615,0.1617,0.162,0.1621,0.1623,0,0.1896,0.1899,0.19,0.1906,0.1896,0.1937,0.1927,0.1864,0.1806,0.1824,0.18,0.1618,0.1515,0.1526,0.1387,0.1371,0.137,0.1319,0.1314,0.1354,0.139,0.1303,0.0996,0.0994,0.0992,0.099,0,0,0.1871,0.1841,0.1828,0.1788,0.1796,0.1732,0.1695,0.1617,0.1579,0.1467,0.1401,0.1466,0.1491,0.1238,0.1192,0.1074,0.121,0.1025,0.1531,0.1568,0.1601,0.1683,0.1593,0,0,0,0,0]},{"header":{"parameterUnit":"m.s-1","parameterCategory":2,"la1":30.2991,"la2":30.254,"lo1":-89.0895,"lo2":-89.0444,"dy":0.0017,"dx":0.0017,"nx":28,"ny":28,"refTime":"2025-07-18T21:00:00:Z","depth":"2","parameterNumber":3,"parameterNumberName":"V-component_of_CURRENTS"},"data":[0,0,0,0,0,0,0,0,0,0,0,0,0,0,0,0,0,0,0,0,0,0,0,0,0,0,0,0,0,0,0,0,0,0,0,0,0,0,0,0,0,0,0,0,0,0,0,0,0,0,0,0,0,0,0,0,0,0,0.031,0.031,0,0.0323,0.0323,0.0323,0.0328,0.0328,0.0328,0.0328,0.0325,0.0324,0.0324,0,0,0,0,0,0,0,0,0,0,0,0,0,0.0257,0.0258,0.031,0.031,0.031,0.0323,0.0323,0.0323,0.0328,0.0328,0.0328,0.0328,0.0325,0.0324,0.0324,0,0,0,0,0,0,0,0,0,0,0,0,0,0.0274,0.0258,0.031,0.0316,0.0317,0.0323,0.0323,0.0323,0.0328,0.0328,0.0328,0.0328,0.0325,0.0325,0.0324,0.0318,0,0,0.0323,0.0323,0,0,0,0,0,0,0,0,0.0273,0.0276,0.0315,0.0315,0.0316,0.0326,0.0303,0.0321,0.0328,0.0321,0.0328,0.0328,0.0325,0.0324,0.0324,0.0318,0.0318,0.0323,0.0323,0.0323,0.0323,0,0,0,0,0,0,0,0.0272,0.0275,0.0313,0.0315,0.0316,0.0307,0.031,0.0307,0.032,0.0322,0.0323,0.0327,0.0325,0.0324,0.0324,0.0318,0.0323,0.0323,0.0323,0.0323,0.0325,0.0326,0,0,0,0,0,0,0.0276,0.0274,0.0313,0.0314,0.0297,0.0308,0.0311,0.0321,0.032,0.0321,0.0327,0.0328,0.0325,0.0324,0.0324,0.0347,0.0323,0.0323,0.0322,0.0325,0.0325,0.0326,0,0,0,0,0,0,0.0275,0.028,0.0312,0.0295,0.0299,0.031,0.032,0.0321,0.0327,0.0325,0.0325,0.0333,0.0325,0.0324,0.0331,0.0345,0.0322,0.0322,0.0325,0.0325,0.0326,0.0373,0,0,0,0,0,0,0.0274,0.0279,0.0287,0.0296,0.03,0.0325,0.032,0.0321,0.033,0.0331,0.033,0.033,0.0325,0.0332,0.0331,0.0345,0.0322,0.0324,0.0325,0.0325,0.0371,0.0375,0.0379,0,0,0,0,0,0.0272,0.0287,0.0288,0.0292,0.0312,0.0325,0.0327,0.0333,0.0331,0.0337,0.0338,0.033,0.0334,0.0332,0.0331,0.0345,0.0324,0.0325,0.0325,0.037,0.0375,0.0379,0,0,0,0,0,0,0.0269,0.0289,0.029,0.0311,0.032,0.0327,0.0336,0.0336,0.0341,0.0342,0.0335,0.0335,0.0345,0.0335,0.0333,0.0345,0.0327,0.0327,0.0361,0.0365,0.0369,0.0399,0.0322,0,0,0,0,0,0.0272,0.0289,0.0301,0.0318,0.0323,0.0328,0.0334,0.0338,0.0344,0.0346,0.0349,0.0346,0.0345,0.0348,0.0344,0.0354,0.0341,0.036,0.0363,0.0367,0.039,0.0376,0.0381,0.0328,0.0328,0.0328,0,0,0.0275,0.0289,0.0298,0.0318,0.0325,0.0344,0.0332,0.0347,0.0365,0.0345,0.037,0.0359,0.0348,0.036,0.0363,0.0357,0.0371,0.0367,0.037,0.0392,0.0378,0.0383,0.0388,0.0328,0.0328,0.0328,0,0,0.0293,0.0303,0.0322,0.0334,0.0351,0.0356,0.0362,0.0375,0.0382,0.0399,0.0388,0.0392,0.0391,0.0393,0.0391,0.0411,0.0388,0.0402,0.0452,0.0438,0.0443,0.0447,0.0423,0.0424,0.0407,0.0407,0.0408,0,0.0294,0.0326,0.0329,0.0352,0.0372,0.0365,0.0394,0.0398,0.0413,0.0432,0.0415,0.0428,0.0411,0.0434,0.0441,0.0422,0.0406,0.0437,0.0444,0.0448,0.0451,0.0426,0.0427,0.041,0.041,0.0409,0.0409,0,0.0325,0.0354,0.0368,0.0399,0.0416,0.0439,0.0451,0.0469,0.0475,0.0486,0.051,0.0488,0.0506,0.0487,0.0472,0.0492,0.0468,0.0447,0.0437,0.046,0.0431,0.0431,0.0413,0.0412,0.0412,0.0411,0,0,0.0324,0.038,0.0386,0.042,0.0448,0.0471,0.0502,0.054,0.0577,0.0573,0.0624,0.0603,0.0601,0.0598,0.0573,0.0555,0.0549,0.0519,0.0517,0.0502,0.0513,0.0482,0.0479,0.0528,0.0528,0.0529,0.0478,0,0.035,0.0412,0.0431,0.0495,0.0532,0.0549,0.0588,0.0619,0.0636,0.068,0.0663,0.0692,0.064,0.0653,0.063,0.0573,0.0556,0.0565,0.0488,0.0486,0.0462,0.0481,0.0459,0.0411,0.0478,0.0478,0.0478,0,0.0374,0.042,0.0487,0.057,0.0588,0.0624,0.0699,0.0735,0.0782,0.0799,0.0822,0.0809,0.0804,0.0749,0.0675,0.0683,0.0615,0.0556,0.0553,0.0516,0.0457,0.0401,0.0409,0.0478,0.0478,0.0478,0.0478,0,0.0384,0.0463,0.0525,0.055,0.0631,0.0675,0.0723,0.0777,0.0829,0.0886,0.0921,0.0909,0.0908,0.0829,0.0712,0.0699,0.0614,0.0577,0.0485,0.0481,0.0446,0.0438,0.0534,0.0534,0.0534,0.0534,0.0534,0,0.041,0.0462,0.0541,0.0578,0.0669,0.0715,0.0808,0.0855,0.0931,0.1005,0.0993,0.1024,0.0926,0.0864,0.0752,0.0622,0.0645,0.0509,0.0475,0.0459,0.0453,0.0502,0.0499,0.0532,0.0533,0.0533,0.0533,0,0.0411,0.046,0.054,0.0637,0.0677,0.0746,0.087,0.0937,0.0998,0.1093,0.1119,0.1114,0.1033,0.0913,0.0778,0.0671,0.055,0.0497,0.0481,0.0448,0.0415,0.0415,0.0399,0.0398,0.0397,0.0396,0.0395,0,0.0419,0.046,0.0573,0.0636,0.0686,0.0792,0.0871,0.0967,0.104,0.1138,0.1184,0.115,0.1115,0.0905,0.0726,0.0541,0.0529,0.04,0.0376,0.0437,0.0406,0.0407,0.0409,0.0336,0.0335,0.0334,0.0333,0,0.0437,0.0472,0.0538,0.0658,0.0754,0.0859,0.0977,0.1046,0.116,0.1222,0.128,0.1261,0.1086,0.089,0.0651,0.0516,0.043,0.0374,0.0449,0.0378,0.0375,0.0345,0.0349,0.0324,0.0325,0.0326,0.0326,0.0327,0.0446,0.049,0.0578,0.0691,0.0802,0.092,0.1003,0.1113,0.1222,0.1323,0.1313,0.1272,0.1084,0.0753,0.0548,0.0348,0.0374,0.0283,0.0287,0.0292,0.0298,0.0294,0.0229,0.0229,0.0229,0.0229,0.023,0,0.0467,0.0524,0.0615,0.0753,0.0861,0.0925,0.1071,0.1143,0.1255,0.1325,0.1353,0.1126,0.092,0.0716,0.0415,0.0235,0.0215,0.0163,0.0185,0.0195,0.0203,0.0206,0.0111,0.011,0.011,0.0109,0,0,0.0484,0.0552,0.0592,0.0767,0.0875,0.1011,0.1089,0.1189,0.1257,0.1289,0.1264,0.1223,0.0975,0.0727,0.048,0.031,0.0291,0.0257,0.0368,0.0433,0.0444,0.0283,0.0299,0,0,0,0,0]}],[{"header":{"parameterUnit":"m.s-1","parameterCategory":2,"la1":30.2991,"la2":30.254,"lo1":-89.0895,"lo2":-89.0444,"dy":0.0017,"dx":0.0017,"nx":28,"ny":28,"refTime":"2025-07-18T21:00:00:Z","depth":"4","parameterNumber":2,"parameterNumberName":"U-component_of_CURRENTS"},"data":[0,0,0,0,0,0,0,0,0,0,0,0,0,0,0,0,0,0,0,0,0,0,0,0,0,0,0,0,0,0,0,0,0,0,0,0,0,0,0,0,0,0,0,0,0,0,0,0,0,0,0,0,0,0,0,0,0,0,0.0956,0.0956,0,0.0979,0.0979,0.0979,0.1014,0.1015,0.1015,0.1016,0.1074,0.1075,0.1075,0,0,0,0,0,0,0,0,0,0,0,0,0,0.0953,0.0953,0.0956,0.0956,0.0957,0.0978,0.0979,0.0979,0.1014,0.1015,0.1016,0.1016,0.1073,0.1074,0.1076,0,0,0,0,0,0,0,0,0,0,0,0,0,0.0963,0.0953,0.0956,0.0976,0.0978,0.0978,0.0979,0.0979,0.1014,0.1015,0.1016,0.1017,0.1073,0.1074,0.1076,0.1068,0,0,0.108,0.1081,0,0,0,0,0,0,0,0,0.0963,0.0964,0.0973,0.0975,0.0977,0.0994,0.0999,0.101,0.1014,0.1001,0.1016,0.1017,0.1049,0.1053,0.1055,0.107,0.1073,0.108,0.1081,0.1082,0.1082,0,0,0,0,0,0,0,0.0962,0.0963,0.0966,0.0973,0.0976,0.0987,0.099,0.1001,0.1021,0.1002,0.1005,0.1006,0.1051,0.1054,0.1057,0.1074,0.108,0.1082,0.1083,0.1083,0.1167,0.1168,0,0,0,0,0,0,0.0956,0.0962,0.0965,0.0966,0.0971,0.0987,0.0989,0.0988,0.102,0.1026,0.1005,0.1007,0.1051,0.1055,0.1059,0.1128,0.1082,0.1083,0.1084,0.1166,0.1167,0.1169,0,0,0,0,0,0,0.0956,0.0956,0.0964,0.0964,0.0966,0.0986,0.0984,0.0988,0.1016,0.1022,0.1028,0.1032,0.1052,0.1057,0.1093,0.1127,0.1084,0.1085,0.1164,0.1166,0.1168,0.1216,0,0,0,0,0,0,0.0956,0.0956,0.0967,0.0964,0.0966,0.0981,0.0983,0.0988,0.1014,0.1018,0.1046,0.1051,0.1053,0.1091,0.1094,0.1129,0.1087,0.1162,0.1165,0.1167,0.1213,0.1219,0.1225,0,0,0,0,0,0.0956,0.0961,0.0967,0.0968,0.0975,0.0981,0.0984,0.1001,0.1014,0.1029,0.1052,0.1052,0.1109,0.1093,0.1097,0.1132,0.1161,0.1164,0.1167,0.121,0.1218,0.1225,0,0,0,0,0,0,0.0968,0.0965,0.0972,0.0977,0.0987,0.0987,0.1004,0.1014,0.1042,0.1055,0.1064,0.107,0.1115,0.1115,0.1097,0.1164,0.1137,0.1141,0.1168,0.1176,0.1182,0.1175,0.1088,0,0,0,0,0,0.0974,0.0977,0.0978,0.0986,0.0993,0.1004,0.1014,0.1025,0.1042,0.1056,0.1077,0.1102,0.1125,0.1144,0.1161,0.1195,0.1193,0.1222,0.1228,0.1233,0.1231,0.1267,0.1276,0.1178,0.1178,0.1178,0,0,0.0978,0.098,0.0981,0.099,0.1,0.1009,0.1013,0.1034,0.1054,0.1057,0.1104,0.1124,0.1139,0.1179,0.12,0.1188,0.126,0.1237,0.1242,0.1236,0.1271,0.1281,0.1289,0.118,0.118,0.118,0,0,0.0982,0.0994,0.0997,0.1009,0.1027,0.1031,0.1043,0.1061,0.1087,0.1122,0.1137,0.1178,0.1209,0.1232,0.1244,0.1294,0.129,0.1307,0.1336,0.1372,0.138,0.1387,0.1391,0.1398,0.1312,0.1312,0.1312,0,0.0991,0.0992,0.1002,0.1012,0.1025,0.1043,0.1055,0.1079,0.1111,0.1138,0.1145,0.1217,0.1233,0.1284,0.1304,0.1309,0.1316,0.1306,0.1379,0.1387,0.1393,0.1395,0.1402,0.1315,0.1314,0.1314,0.1314,0,0.0991,0.1003,0.101,0.1025,0.1044,0.1057,0.1085,0.1123,0.1156,0.1175,0.1244,0.1273,0.1317,0.1335,0.1333,0.1396,0.1381,0.1381,0.1359,0.1406,0.1405,0.1412,0.1319,0.1318,0.1317,0.1316,0,0,0.0976,0.1001,0.1008,0.1021,0.1053,0.1066,0.1113,0.1152,0.1191,0.124,0.1293,0.1346,0.1373,0.1389,0.141,0.1441,0.1493,0.1434,0.1435,0.1433,0.1555,0.1427,0.1421,0.1512,0.1514,0.1515,0.1533,0,0.0974,0.0986,0.1009,0.1036,0.104,0.1089,0.1128,0.1176,0.1221,0.1279,0.1333,0.1392,0.1391,0.1434,0.1463,0.1493,0.1515,0.1487,0.1513,0.1513,0.139,0.1426,0.152,0.1538,0.154,0.1541,0.1541,0,0.0963,0.0972,0.0992,0.1036,0.1049,0.1083,0.1158,0.12,0.1281,0.1321,0.1389,0.1432,0.1505,0.1496,0.1562,0.1547,0.1552,0.1562,0.1563,0.1428,0.1397,0.1484,0.1553,0.1552,0.1551,0.1551,0.155,0,0.0933,0.0965,0.0981,0.0995,0.1047,0.1096,0.1143,0.122,0.1262,0.1368,0.1408,0.1489,0.1545,0.1581,0.1601,0.1599,0.1646,0.1647,0.1528,0.1519,0.1608,0.16,0.168,0.168,0.168,0.168,0.168,0,0.0908,0.0925,0.0976,0.099,0.1033,0.1087,0.1152,0.1219,0.1299,0.134,0.1438,0.1477,0.1572,0.1608,0.1618,0.1581,0.1664,0.1529,0.1518,0.1626,0.162,0.1612,0.1604,0.168,0.168,0.168,0.168,0,0.0862,0.0898,0.0918,0.0986,0.1021,0.1058,0.1155,0.1184,0.1284,0.1347,0.1391,0.1488,0.1539,0.1592,0.1643,0.1586,0.1581,0.1542,0.1636,0.1631,0.1425,0.142,0.1423,0.1418,0.1415,0.1412,0.1409,0,0.0833,0.0837,0.091,0.0928,0.0967,0.103,0.1067,0.1173,0.1204,0.1328,0.1345,0.144,0.1489,0.146,0.1515,0.152,0.1497,0.1473,0.146,0.1411,0.1401,0.1401,0.1401,0.1403,0.1402,0.1401,0.1401,0,0.077,0.0807,0.0827,0.0859,0.0908,0.0942,0.1015,0.103,0.114,0.124,0.1282,0.1315,0.1351,0.1386,0.1391,0.139,0.1485,0.1435,0.1443,0.1431,0.1388,0.1381,0.1385,0.1388,0.139,0.1391,0.1392,0,0.0727,0.0721,0.0754,0.0777,0.0823,0.0841,0.0891,0.0935,0.0992,0.1143,0.1143,0.1243,0.1335,0.1315,0.1318,0.1311,0.1296,0.1248,0.1265,0.128,0.1222,0.1146,0.106,0,0,0,0,0,0.0672,0.0661,0.0665,0.0693,0.0725,0.0767,0.0841,0.0887,0.1005,0.1007,0.108,0.1117,0.114,0.1181,0.1146,0.123,0.1284,0.1179,0.1234,0.1318,0.1332,0.1275,0,0,0,0,0,0,0.0637,0.0641,0.0635,0.0612,0.0617,0.0657,0.0705,0.0782,0.0796,0.0921,0.0948,0.104,0.1085,0.1163,0.1128,0.1137,0.1141,0.1241,0.1237,0.1309,0.1323,0.1334,0.1281,0,0,0,0,0]},{"header":{"parameterUnit":"m.s-1","parameterCategory":2,"la1":30.2991,"la2":30.254,"lo1":-89.0895,"lo2":-89.0444,"dy":0.0017,"dx":0.0017,"nx":28,"ny":28,"refTime":"2025-07-18T21:00:00:Z","depth":"4","parameterNumber":3,"parameterNumberName":"V-component_of_CURRENTS"},"data":[0,0,0,0,0,0,0,0,0,0,0,0,0,0,0,0,0,0,0,0,0,0,0,0,0,0,0,0,0,0,0,0,0,0,0,0,0,0,0,0,0,0,0,0,0,0,0,0,0,0,0,0,0,0,0,0,0,0,0.001,0.001,0,0.002,0.002,0.002,0.002,0.002,0.002,0.002,0.0022,0.0022,0.0022,0,0,0,0,0,0,0,0,0,0,0,0,0,-0.0013,-0.0013,0.001,0.001,0.001,0.002,0.002,0.002,0.002,0.002,0.002,0.002,0.0022,0.0022,0.0022,0,0,0,0,0,0,0,0,0,0,0,0,0,-0.0003,-0.0013,0.001,0.0012,0.0012,0.002,0.002,0.002,0.002,0.002,0.002,0.002,0.0022,0.0022,0.0022,0.0027,0,0,0.0023,0.0023,0,0,0,0,0,0,0,0,-0.0004,-0.0003,0.0011,0.0012,0.0012,0.0019,0.0012,0.0022,0.002,0.0017,0.002,0.002,0.0021,0.0021,0.0023,0.0027,0.0027,0.0023,0.0023,0.0023,0.0023,0,0,0,0,0,0,0,-0.0005,-0.0003,0.0014,0.0011,0.0012,0.001,0.0012,0.0014,0.0019,0.0017,0.0017,0.0019,0.0021,0.0023,0.0023,0.0027,0.0023,0.0023,0.0024,0.0024,0.0039,0.0039,0,0,0,0,0,0,-0.0005,-0.0004,0.0013,0.0014,0.0004,0.0011,0.0012,0.0017,0.0019,0.002,0.0019,0.0019,0.0022,0.0023,0.0023,0.0038,0.0023,0.0024,0.0024,0.0039,0.0039,0.0039,0,0,0,0,0,0,-0.0005,-0.0003,0.0013,0.0005,0.0007,0.0012,0.0016,0.0017,0.0022,0.0021,0.0021,0.0024,0.0022,0.0023,0.0031,0.0038,0.0024,0.0024,0.0038,0.0039,0.0039,0.0063,0,0,0,0,0,0,-0.0006,-0.0004,0.0001,0.0005,0.0008,0.0024,0.0016,0.0017,0.0023,0.0023,0.0025,0.0025,0.0022,0.0031,0.0032,0.0038,0.0024,0.0038,0.0039,0.0039,0.0062,0.0064,0.0066,0,0,0,0,0,-0.0007,0.0001,0.0001,0.0003,0.0013,0.0025,0.0026,0.0028,0.0024,0.0031,0.0031,0.0025,0.0034,0.0032,0.0032,0.0039,0.0038,0.0039,0.0039,0.0061,0.0063,0.0066,0,0,0,0,0,0,-0.0007,0.0002,0.0002,0.0012,0.002,0.0025,0.0032,0.0031,0.0037,0.0036,0.0032,0.0032,0.0041,0.0037,0.0034,0.0044,0.0034,0.0035,0.005,0.0053,0.0055,0.005,0.0024,0,0,0,0,0,-0.0005,0.0004,0.0012,0.002,0.0025,0.0028,0.0033,0.0035,0.0039,0.0041,0.0044,0.0043,0.0043,0.0046,0.0047,0.0056,0.0037,0.0059,0.0061,0.0063,0.0059,0.0036,0.0035,0.0042,0.0042,0.0042,0,0,-0.0005,0.0003,0.0006,0.002,0.0026,0.0039,0.0031,0.0042,0.0051,0.0041,0.0056,0.0052,0.0047,0.0056,0.0059,0.0055,0.0052,0.0064,0.0065,0.006,0.0036,0.0035,0.0035,0.0042,0.0042,0.0042,0,0,0.0003,0.0009,0.002,0.0031,0.0043,0.0048,0.0052,0.0061,0.0065,0.0078,0.007,0.0069,0.0078,0.0072,0.007,0.0083,0.0064,0.0087,0.0095,0.0073,0.0072,0.0071,0.005,0.0047,0.0088,0.0088,0.0088,0,0.0001,0.0018,0.0025,0.0041,0.0051,0.0053,0.0068,0.0074,0.0085,0.0085,0.0087,0.0086,0.0083,0.0082,0.0087,0.0088,0.0073,0.0087,0.0075,0.0073,0.0072,0.0051,0.0047,0.009,0.0089,0.0089,0.0089,0,0.0018,0.0033,0.0041,0.0062,0.0076,0.0088,0.0099,0.011,0.0114,0.0112,0.0115,0.0111,0.0108,0.0107,0.0103,0.0093,0.0086,0.008,0.0068,0.0073,0.005,0.0046,0.0091,0.0091,0.009,0.009,0,0,0.0007,0.0045,0.0047,0.0064,0.0087,0.0101,0.0119,0.0129,0.0135,0.0139,0.0142,0.0138,0.0129,0.0125,0.0118,0.0099,0.0078,0.0088,0.0086,0.0066,0.0028,0.0035,0.003,0.007,0.007,0.0069,0.0018,0,0.0015,0.0048,0.0066,0.0098,0.0115,0.0129,0.0146,0.0156,0.0159,0.0164,0.0147,0.0153,0.0138,0.0145,0.0119,0.0096,0.0067,0.0092,0.0027,0.0025,0.0029,0.0026,0.0067,0.0015,0.0014,0.0013,0.0012,0,0.0025,0.0046,0.0079,0.0119,0.0128,0.015,0.0176,0.0193,0.0192,0.0193,0.0184,0.0176,0.0161,0.0146,0.0091,0.011,0.0067,0.0038,0.0036,0.0029,0.0024,0.0008,0.0004,0.0005,0.0005,0.0006,0.0007,0,0.0016,0.0057,0.0085,0.0098,0.014,0.0161,0.0186,0.0198,0.0219,0.0217,0.0229,0.0196,0.0201,0.0141,0.0093,0.0093,0.0022,0.0014,-0.0029,-0.0029,-0.003,-0.0029,-0.0047,-0.0047,-0.0047,-0.0046,-0.0046,0,0.0021,0.0042,0.0086,0.0103,0.0144,0.017,0.021,0.0225,0.0246,0.0272,0.025,0.0261,0.0201,0.0161,0.0096,0.0028,0.0024,-0.0032,-0.0043,-0.0018,-0.0015,-0.0033,-0.0031,-0.0048,-0.0048,-0.0048,-0.0047,0,0.0015,0.0039,0.0075,0.0123,0.0146,0.0179,0.0249,0.0274,0.029,0.0327,0.0337,0.0316,0.0273,0.0199,0.0108,0.0049,-0.0028,-0.006,-0.0024,-0.0032,-0.0068,-0.0064,-0.011,-0.0111,-0.0111,-0.0111,-0.0111,0,0.002,0.0036,0.0094,0.0129,0.0159,0.0214,0.0257,0.0295,0.0332,0.0362,0.0384,0.0357,0.0332,0.0215,0.012,-0.0008,-0.0032,-0.008,-0.0083,-0.0069,-0.0076,-0.0071,-0.0067,-0.0111,-0.0111,-0.0112,-0.0112,0,0.0031,0.0046,0.0079,0.0147,0.0203,0.0263,0.0331,0.036,0.0407,0.0419,0.0439,0.0385,0.033,0.023,0.0133,0.0034,-0.0049,-0.0082,-0.0083,-0.0086,-0.0071,-0.0076,-0.0072,-0.0112,-0.0112,-0.0112,-0.0112,0,0.0042,0.0064,0.011,0.0174,0.0239,0.0304,0.0335,0.0395,0.0434,0.0474,0.0473,0.0414,0.0382,0.025,0.0156,0.007,0.004,-0.0001,-0.0006,-0.0007,0.0037,0.0072,0.0063,0,0,0,0,0,0.0058,0.0088,0.0142,0.0212,0.0273,0.0317,0.0386,0.0412,0.0454,0.0482,0.0486,0.0439,0.032,0.0262,0.0179,0.0128,0.0005,0.0023,-0.0049,-0.0116,-0.0115,-0.0081,0,0,0,0,0,0,0.0074,0.0116,0.0141,0.0234,0.0287,0.0361,0.0404,0.0431,0.0453,0.0479,0.0423,0.0407,0.0292,0.0376,0.0177,0.0148,0.0087,-0.0028,-0.003,-0.0116,-0.0116,-0.0115,-0.008,0,0,0,0,0]}]]